Portada
METAR-TAF:

METAR-TAF

Aeroports :

Laurinburg-Maxton Airport

Maxton, Carolina del Nord, Estats Units d'Amèrica

latitud: 34-47-29N, longitud: 079-22-05W, altitud: 67 m

Observació

L'informe es va fer fa 55 minuts, a les 08:52 UTC
Vent 7 kt del Nord-Est
Temperatura 9°C
Humitat 71%
Pressió 1027 hPa
Visibilitat: 16.1 km
Cel cobert a una alçada de 4200 ft

METAR: KMEB 310852Z AUTO 05007KT 10SM OVC042 09/04 A3034 RMK AO2 SLP271 T00890044 53015

Hora: 05:47 (09:47 UTC)


TAF: manca

Observacions i pronòstics meteorològics de més de 4000 aeroports (METAR i TAF).

Les estacions disponibles són els punts grocs i vermells al mapa.

Posi el ratolí al punt desitjat per veure el nom de l'estació.

Feu clic per veure les observacions i els pronòstics meteorològics.

Per canviar el mapa: feu clic els botons verds amb una creu de color negre per apropar; al botó verd amb un guió per allunyar la imatge; o en les fletxes verdes per a mapes adjacents.


METAR-TAF: